Location: Unspecified
(17.6330°N, 0.0000°E)
Time: 09:51:47
(UTC+00:00)

S-56A Canister/Altair - Pass Details

Date: 29 June 2019
Orbit: 632 x 2500 km, 38.9° (Epoch: 19 July)

Event Time Altitude Azimuth Distance (km) Brightness Sun altitude
Rises 09:24:53 0° 205° (SSW) 5,938 11.8 52.5°
Reaches altitude 10° 09:29:08 10° 197° (SSW) 5,059 11.6 53.5°
Maximum altitude 09:42:18 37° 136° (SE) 3,382 11.6 56.5°
Drops below altitude 10° 09:54:27 10° 75° (ENE) 4,720 12.2 59.3°
Sets 09:58:10 0° 68° (ENE) 5,516 12.3 60.2°
